Orbital Elements at Epoch 2459000.5 (2020-May-31.0) TDB
Reference: JPL 15 (heliocentric ecliptic J2000)
Element | Value | Uncertainty (1-sigma) | Units |
e | .05667733686568109 | 4.5934e-08 | |
a | 3.123931498758984 | 4.6374e-08 | au |
q | 2.946875380858509 | 1.4523e-07 | au |
i | 11.90872214065301 | 5.4977e-06 | deg |
node | 50.85747043324837 | 2.2883e-05 | deg |
peri | 190.1176505671061 | 6.659e-05 | deg |
M | 46.32527026253505 | 5.8455e-05 | deg |
tp | 2458740.982803486984 (2019-Sep-14.48280349) | 0.00033008 | TDB |
period | 2016.74356598936 5.52 | 4.4907e-05 1.229e-07 | d yr |
n | .1785055899377042 | 3.9748e-09 | deg/d |
Q | 3.300987616659458 | 4.9002e-08 | au |
|
| | Orbit Determination Parameters
Additional Information
|